VK3XEM-13 Weather Reports


time (UTC)temp
F
wind
direction
speed
knots
gust
knots
rain 1hr
in
rain 24hr
in
rain mn
in
humidity
%
barometer
mb
20260510231715 49 134 1.7 3.5 0.00 0.00 0.00 97 1031.7
20260510230214 48 151 1.7 2.6 0.00 0.00 0.00 97 1031.7
20260510224714 48 204 1.7 2.6 0.00 0.00 0.00 97 1031.7
20260510223214 48 226 0.9 1.7 0.00 0.00 0.00 97 1031.7
20260510221715 48 202 0.9 1.7 0.00 0.00 0.00 97 1031.4
20260510220214 48 192 0.9 2.6 0.00 0.00 0.00 97 1031.4
20260510214714 47 161 0.0 0.9 0.00 0.00 0.00 97 1031.4
20260510213214 47 191 0.0 0.9 0.00 0.00 0.00 97 1031.4
20260510211714 48 173 0.9 0.9 0.00 0.00 0.00 97 1031.0
20260510210214 48 221 0.0 0.0 0.00 0.00 0.00 97 1031.0
20260510204714 48 193 0.0 0.0 0.00 0.00 0.00 97 1030.7
20260510203214 47 194 0.0 0.0 0.00 0.00 0.00 97 1030.7
20260510201715 47 193 0.0 0.0 0.00 0.00 0.00 97 1030.7
20260510200214 47 194 0.0 0.0 0.00 0.00 0.00 97 1030.3
20260510194714 47 194 0.0 0.0 0.00 0.00 0.00 97 1030.3
20260510193214 46 194 0.0 0.0 0.00 0.00 0.00 97 1030.3
20260510191714 46 200 0.0 0.0 0.00 0.00 0.00 97 1029.7
20260510190214 46 191 0.0 0.9 0.00 0.00 0.00 97 1029.7
20260510184714 46 191 0.0 0.0 0.00 0.00 0.00 97 1029.7
20260510183214 46 170 0.0 0.0 0.00 0.00 0.00 97 1029.7
20260510181714 45 213 0.9 0.9 0.00 0.00 0.00 97 1029.3
20260510180214 45 213 0.9 0.9 0.00 0.00 0.00 97 1029.3
20260510174715 44 192 0.0 1.7 0.00 0.00 0.00 97 1029.3
20260510173214 44 212 0.0 0.0 0.00 0.00 0.00 96 1029.3
20260510171714 43 201 0.0 0.9 0.00 0.00 0.00 96 1029.3
20260510170214 44 207 0.0 0.0 0.00 0.00 0.00 96 1029.0
20260510164714 44 214 0.0 0.0 0.00 0.00 0.00 96 1029.3
20260510163215 44 217 0.0 0.0 0.00 0.00 0.00 96 1029.3
20260510161714 44 265 0.0 0.0 0.00 0.00 0.00 96 1029.3
20260510160214 43 327 0.0 0.0 0.00 0.00 0.00 96 1029.3
20260510154714 43 328 0.0 0.0 0.00 0.00 0.00 96 1029.7
20260510153214 43 327 0.0 0.0 0.00 0.00 0.00 96 1029.3
20260510151714 43 328 0.0 0.0 0.00 0.00 0.00 96 1029.7
20260510150214 43 328 0.0 0.0 0.00 0.00 0.00 95 1029.3
20260510144715 43 327 0.0 0.0 0.00 0.00 0.00 95 1029.7
20260510143214 44 328 0.0 0.0 0.00 0.00 0.00 95 1029.7
20260510141714 44 328 0.0 0.0 0.00 0.00 0.00 95 1029.3
20260510140214 44 328 0.0 0.0 0.00 0.00 0.00 95 1029.3
20260510134714 45 327 0.0 0.0 0.00 0.00 0.02 95 1029.7
20260510133215 45 328 0.0 0.0 0.00 0.00 0.02 95 1029.7
20260510131714 45 327 0.0 0.0 0.00 0.00 0.02 95 1029.7
20260510130215 45 327 0.0 0.0 0.00 0.00 0.02 95 1029.7
20260510124714 45 327 0.0 0.0 0.00 0.00 0.02 94 1029.7
20260510123214 45 327 0.0 0.0 0.00 0.00 0.02 94 1029.7
20260510121714 45 328 0.0 0.0 0.00 0.00 0.02 94 1030.0
20260510120214 45 328 0.0 0.0 0.00 0.00 0.02 94 1029.7
20260510114714 46 328 0.0 0.0 0.00 0.00 0.02 94 1030.0
20260510113215 46 328 0.0 0.0 0.00 0.00 0.02 93 1030.0
20260510111714 47 328 0.0 0.0 0.00 0.00 0.02 93 1029.7
20260510110214 47 328 0.0 0.0 0.00 0.00 0.02 93 1029.3
20260510104714 47 328 0.0 0.0 0.00 0.00 0.02 93 1029.3
20260510103214 48 328 0.0 0.0 0.00 0.00 0.02 93 1029.3
20260510101715 48 327 0.0 0.0 0.00 0.00 0.02 92 1029.7
20260510100214 48 328 0.0 0.0 0.00 0.00 0.02 92 1029.3
20260510094715 48 328 0.0 0.0 0.00 0.00 0.02 91 1029.3
20260510093214 49 328 0.0 0.0 0.00 0.00 0.02 90 1029.3
20260510091714 49 328 0.0 0.0 0.00 0.00 0.02 89 1029.0
20260510090214 50 328 0.0 0.0 0.00 0.00 0.02 88 1029.3
20260510084714 51 328 0.0 0.0 0.00 0.00 0.02 86 1029.0
20260510083215 52 328 0.0 0.0 0.00 0.00 0.02 84 1028.6
20260510081714 54 328 0.0 0.0 0.00 0.00 0.02 81 1028.6
20260510080214 55 327 0.0 0.0 0.00 0.00 0.02 78 1028.6
20260510074715 56 327 0.0 0.0 0.00 0.00 0.02 75 1028.3
20260510073214 57 327 0.0 0.0 0.00 0.00 0.02 72 1028.3
20260510071714 58 329 0.0 0.0 0.00 0.00 0.02 69 1028.3
20260510070214 59 306 0.9 0.9 0.00 0.00 0.02 66 1028.0
20260510064714 61 282 0.0 0.9 0.00 0.00 0.02 64 1028.0
20260510063214 62 342 0.0 0.9 0.00 0.00 0.02 61 1028.0
20260510061714 61 343 0.9 1.7 0.00 0.00 0.02 62 1027.6
20260510060214 61 301 2.6 3.5 0.00 0.00 0.02 63 1027.6
20260510054714 62 313 0.9 0.9 0.00 0.00 0.02 61 1027.6
20260510053214 63 305 1.7 2.6 0.00 0.00 0.02 60 1027.6
20260510051715 62 80 1.7 1.7 0.00 0.00 0.02 60 1027.6
20260510050214 60 85 0.9 1.7 0.00 0.00 0.02 61 1027.6
20260510044714 60 1 0.9 2.6 0.00 0.00 0.02 64 1027.6
20260510043214 62 67 0.0 2.6 0.00 0.00 0.02 61 1027.6
20260510041714 63 272 0.9 1.7 0.00 0.00 0.02 59 1027.6
20260510040214 61 103 0.0 0.9 0.00 0.00 0.02 62 1027.6
20260510034714 59 60 0.9 2.6 0.00 0.00 0.02 65 1028.0
20260510033214 60 44 0.9 2.6 0.00 0.00 0.02 65 1027.6
20260510031714 60 300 1.7 1.7 0.00 0.00 0.02 65 1028.0
20260510030214 60 17 0.0 1.7 0.00 0.00 0.02 67 1028.0
20260510024714 59 342 0.9 3.5 0.00 0.00 0.02 67 1028.3
20260510023214 59 9 0.0 1.7 0.00 0.00 0.02 68 1028.6
20260510021714 60 347 0.0 1.7 0.00 0.00 0.02 66 1028.6
20260510020215 59 7 1.7 1.7 0.00 0.00 0.02 66 1028.6
20260510014714 60 11 1.7 3.5 0.00 0.00 0.02 66 1029.0
20260510013214 59 323 1.7 2.6 0.00 0.00 0.02 67 1029.3
20260510011714 59 342 1.7 6.1 0.00 0.00 0.02 67 1029.3
20260510010214 59 20 0.9 3.5 0.00 0.00 0.02 68 1029.3
20260510004714 58 318 0.9 2.6 0.00 0.00 0.02 69 1029.3
20260510003214 58 52 0.9 1.7 0.00 0.00 0.02 71 1029.3
20260510001714 58 58 0.9 1.7 0.00 0.00 0.02 71 1029.3
20260510000214 58 49 0.0 0.9 0.00 0.00 0.02 75 1029.3
20260509234714 57 2 0.0 0.0 0.00 0.00 0.02 77 1029.3
20260509233214 57 0 0.9 0.9 0.00 0.00 0.02 79 1029.3